1522090801.2,25304,12.56,72534.5,-11.13,-40.03,-40.03,0,*62
1522090802.43,25305,12.56,72528.5,-11.11,-40.15,-40.15,0,*61
1522090803.7,25306,12.56,72534.0,-11.15,-40.09,-40.09,0,*66
1522090804.96,25307,12.56,72528.8,-11.13,-39.65,-39.71,0,*64
1522090806.23,25308,12.56,72530.5,-11.13,-39.65,-39.71,0,*6B
1522090807.48,25309,12.56,72530.3,-11.13,-39.65,-39.65,0,*6F
1522090808.7,25310,12.56,72530.5,-11.11,-39.65,-39.65,0,*65
1522090809.96,25311,12.56,72532.3,-11.11,-39.53,-39.59,0,*6E
1522090811.23,25312,12.56,72532.5,-11.11,-39.59,-39.79,0,*65
1522090812.51,25313,12.56,72528.3,-11.11,-39.59,-39.97,0,*64
1522090813.77,25314,12.56,72532.3,-11.13,-39.71,-40.03,0,*68
1522090815.05,25315,12.56,72528.3,-11.11,-39.79,-39.79,0,*60
1522090816.33,25316,12.5,72530.3,-11.13,-39.53,-39.79,0,*69
1522090817.57,25317,12.56,72528.3,-11.11,-39.41,-39.85,0,*6A
1522090818.86,25318,12.56,72530.8,-11.13,-39.29,-39.71,0,*62
1522090820.1,25319,12.56,72530.0,-11.11,-37.81,-39.47,0,*68
1522090821.39,25320,12.56,72528.3,-11.13,-39.53,-40.09,0,*65
1522090822.63,25321,12.56,72532.5,-11.11,-38.61,-39.79,0,*6F
1522090823.89,25322,12.56,72530.8,-11.13,-38.91,-39.91,0,*67
1522090825.18,25323,12.56,72530.0,-11.13,-37.39,-39.23,0,*62
1522090826.41,25324,12.56,72530.8,-11.11,-37.99,-39.85,0,*61
1522090827.71,25325,12.56,72536.0,-11.13,-39.41,-40.21,0,*69
1522090828.97,25326,12.56,72530.0,-11.13,-39.71,-40.03,0,*69
1522090830.23,25327,12.5,72528.8,-11.13,-39.23,-40.03,0,*6F
1522090831.45,25328,12.56,72530.5,-11.15,-39.47,-39.91,0,*61
1522090832.75,25329,12.5,72524.8,-11.17,-39.79,-40.09,0,*60
1522090833.99,25330,12.56,72528.8,-11.13,-39.85,-40.03,0,*65
1522090835.27,25331,12.56,72530.3,-11.13,-38.67,-39.23,0,*65
1522090836.52,25332,12.56,72528.8,-11.13,-39.65,-39.91,0,*6C
1522090837.78,25333,12.5,72530.3,-11.13,-38.91,-39.65,0,*6C
1522090839.02,25334,12.56,72534.8,-11.15,-39.29,-39.65,0,*6F
1522090840.27,25335,12.56,72534.3,-11.15,-39.91,-40.09,0,*69
1522090841.54,25336,12.56,72530.5,-11.15,-40.09,-40.41,0,*69
1522090842.76,25337,12.56,72530.5,-11.15,-39.85,-40.03,0,*64
1522090844.06,25338,12.5,72530.8,-11.17,-39.71,-40.09,0,*68
1522090845.33,25339,12.5,72528.3,-11.17,-39.71,-40.15,0,*64
1522090846.54,25340,12.5,72528.8,-11.15,-39.65,-40.03,0,*6A
1522090847.76,25341,12.5,72530.0,-11.15,-39.91,-40.03,0,*60
1522090849.05,25342,12.56,72528.5,-11.17,-39.97,-40.09,0,*6D
1522090850.32,25343,12.56,72530.5,-11.17,-39.91,-40.09,0,*6A
1522090851.62,25344,12.56,72532.3,-11.17,-39.79,-40.09,0,*6B
1522090852.92,25345,12.5,72530.5,-11.17,-39.59,-39.97,0,*61
1522090854.22,25346,12.56,72532.3,-11.17,-39.79,-40.29,0,*6B
1522090855.45,25347,12.56,72530.3,-11.15,-40.03,-40.21,0,*63
1522090856.7,25348,12.56,72530.3,-11.17,-39.91,-40.15,0,*6C
1522090858.0,25349,12.5,72528.0,-11.17,-39.59,-39.79,0,*6D
1522090859.29,25350,12.56,72530.8,-11.17,-39.97,-40.09,0,*6E
1522090860.56,25351,12.56,72534.5,-11.17,-39.91,-40.09,0,*69
1522090861.86,25352,12.56,72528.5,-11.17,-39.71,-39.59,0,*6F
1522090863.16,25353,12.56,72532.5,-11.17,-39.71,-39.71,0,*64
1522090864.42,25354,12.56,72528.5,-11.17,-40.09,-40.15,0,*6E
1522090865.71,25355,12.56,72532.5,-11.17,-40.29,-40.29,0,*62
1522090866.97,25356,12.56,72534.3,-11.17,-40.29,-40.35,0,*6C
1522090868.24,25357,12.56,72530.5,-11.17,-40.09,-40.15,0,*6D
1522090869.51,25358,12.56,72530.8,-11.17,-40.15,-40.29,0,*60
1522090870.76,25359,12.5,72530.3,-11.17,-40.15,-40.15,0,*6E
1522090872.03,25360,12.56,72530.0,-11.17,-40.09,-40.35,0,*6B
1522090873.27,25361,12.56,72534.8,-11.19,-40.35,-40.41,0,*68
1522090874.57,25362,12.5,72528.0,-11.17,-39.79,-40.29,0,*6D
1522090875.84,25363,12.56,72530.5,-11.19,-39.79,-40.21,0,*6A
1522090877.08,25364,12.5,72530.8,-11.19,-39.97,-40.15,0,*6A
1522090878.32,25365,12.56,72530.5,-11.19,-40.03,-40.21,0,*6F
1522090879.59,25366,12.5,72528.3,-11.19,-39.97,-40.21,0,*6F
1522090880.86,25367,12.5,72528.0,-11.19,-39.59,-39.97,0,*6F
1522090882.08,25368,12.56,72532.0,-11.19,-39.85,-40.15,0,*65
1522090883.3,25369,12.56,72530.5,-11.19,-40.03,-40.35,0,*66
1522090884.51,25370,12.5,72528.8,-11.19,-40.35,-40.35,0,*6B
1522090885.76,25371,12.56,72530.5,-11.19,-39.79,-40.03,0,*69
1522090887.0,25372,12.56,72534.3,-11.19,-39.59,-39.85,0,*68
1522090888.25,25373,12.5,72530.5,-11.19,-39.65,-40.21,0,*66
1522090889.51,25374,12.56,72534.0,-11.21,-40.21,-40.35,0,*61
1522090890.74,25375,12.56,72532.0,-11.19,-40.21,-40.35,0,*6B
1522090891.99,25376,12.56,72532.8,-11.19,-40.15,-40.21,0,*6A
1522090893.26,25377,12.5,72528.0,-11.21,-39.65,-40.21,0,*69
1522090894.5,25378,12.56,72532.3,-11.21,-39.85,-40.15,0,*6F
1522090895.77,25379,12.56,72534.8,-11.19,-39.97,-40.21,0,*61
1522090896.98,25380,12.56,72532.5,-11.19,-40.03,-40.35,0,*61
1522090898.19,25381,12.5,72532.0,-11.19,-40.35,-40.35,0,*65
1522090899.44,25382,12.5,72532.5,-11.19,-40.15,-40.21,0,*61
1522090900.69,25383,12.5,72532.8,-11.19,-39.79,-40.15,0,*63
1522090901.94,25384,12.56,72532.0,-11.19,-39.79,-40.03,0,*63
1522090903.19,25385,12.5,72530.0,-11.19,-39.85,-39.97,0,*62
1522090904.43,25386,12.56,72534.0,-11.19,-39.97,-40.15,0,*66
1522090905.66,25387,12.5,72528.5,-11.21,-40.03,-40.15,0,*6F
1522090906.92,25388,12.5,72530.8,-11.21,-40.21,-40.35,0,*62
1522090908.14,25389,12.56,72534.3,-11.19,-40.03,-40.15,0,*6A
1522090909.37,25390,12.5,72530.5,-11.19,-39.97,-40.03,0,*66
1522090910.62,25391,12.56,72534.3,-11.21,-39.85,-40.15,0,*68
1522090911.86,25392,12.56,72532.3,-11.19,-39.97,-40.15,0,*63
1522090913.07,25393,12.56,72534.5,-11.19,-39.85,-40.03,0,*66
1522090914.31,25394,12.56,72532.5,-11.21,-40.03,-40.15,0,*6D
1522090915.56,25395,12.56,72532.5,-11.19,-39.85,-39.97,0,*63
1522090916.8,25396,12.5,72530.5,-11.19,-39.85,-39.97,0,*60
1522090918.05,25397,12.56,72532.0,-11.19,-39.79,-40.15,0,*66
1522090919.27,25398,12.5,72528.3,-11.19,-39.85,-40.03,0,*6D
1522090920.56,25399,12.5,72530.5,-11.17,-39.97,-40.09,0,*6B
1522090921.84,25400,12.56,72532.3,-11.19,-39.79,-39.97,0,*6B
1522090923.1,25401,12.5,72528.5,-11.21,-39.97,-40.15,0,*65
1522090924.33,25402,12.5,72530.3,-11.19,-40.15,-40.15,0,*69
1522090925.6,25403,12.5,72530.0,-11.21,-40.15,-40.21,0,*64
1522090926.84,25404,12.5,72530.5,-11.19,-40.03,-40.21,0,*6F
1522090928.07,25405,12.5,72528.3,-11.21,-40.35,-40.35,0,*65
1522090929.33,25406,12.5,72528.8,-11.19,-40.21,-40.21,0,*6D
1522090930.61,25407,12.56,72532.5,-11.19,-39.79,-39.97,0,*6C
1522090931.85,25408,12.5,72530.3,-11.19,-39.97,-40.15,0,*67
1522090933.07,25409,12.5,72528.0,-11.19,-40.15,-40.35,0,*60
1522090934.3,25410,12.5,72524.8,-11.19,-40.21,-40.35,0,*6F
1522090935.55,25411,12.5,72528.3,-11.19,-40.03,-40.21,0,*6B
1522090936.82,25412,12.5,72530.5,-11.19,-39.79,-39.97,0,*68
1522090938.05,25413,12.5,72530.3,-11.19,-39.97,-40.03,0,*6A
1522090939.27,25414,12.5,72530.3,-11.19,-39.85,-40.03,0,*6E
1522090940.55,25415,12.5,72528.5,-11.19,-39.79,-39.79,0,*6F
1522090941.8,25416,12.5,72530.5,-11.19,-39.79,-40.15,0,*68
1522090943.08,25417,12.5,72530.3,-11.19,-39.59,-39.79,0,*6F
1522090944.29,25418,12.5,72528.8,-11.19,-39.65,-39.85,0,*6C
1522090945.56,25419,12.5,72532.3,-11.17,-38.97,-39.59,0,*6E
1522090946.83,25420,12.5,72534.0,-11.19,-39.79,-40.21,0,*6A
1522090948.1,25421,12.5,72532.0,-11.19,-39.97,-40.41,0,*6D
1522090949.34,25422,12.56,72534.5,-11.19,-39.97,-40.35,0,*6D
1522090950.56,25423,12.5,72530.3,-11.19,-39.65,-40.15,0,*63
1522090951.82,25424,12.5,72530.8,-11.21,-38.05,-39.41,0,*67
1522090953.09,25425,12.5,72530.5,-11.21,-40.03,-40.41,0,*61
1522090954.3,25426,12.56,72534.3,-11.19,-38.43,-38.61,0,*6F
1522090955.54,25427,12.5,72532.5,-11.21,-39.35,-38.97,0,*6C
1522090956.79,25428,12.5,72530.0,-11.21,-40.15,-40.35,0,*68
1522090958.05,25429,12.5,72530.3,-11.21,-40.35,-40.59,0,*61
1522090959.35,25430,12.5,72530.3,-11.21,-39.59,-40.21,0,*62
1522090960.62,25431,12.5,72530.8,-11.21,-39.85,-40.21,0,*62
1522090961.87,25432,12.5,72530.0,-11.23,-39.85,-40.21,0,*63
1522090963.1,25433,12.5,72530.5,-11.23,-39.97,-40.35,0,*64
1522090964.34,25434,12.5,72532.8,-11.23,-39.97,-40.35,0,*63
1522090965.59,25435,12.5,72530.5,-11.23,-39.85,-40.41,0,*62
1522090966.86,25436,12.5,72530.0,-11.23,-39.23,-39.79,0,*68
1522090968.1,25437,12.5,72530.5,-11.23,-40.03,-40.21,0,*66
1522090969.36,25438,12.5,72526.0,-11.23,-38.23,-39.41,0,*6C
1522090970.66,25439,12.5,72530.8,-11.25,-36.25,-37.21,0,*6B
1522090971.92,25440,12.5,72530.5,-11.25,-35.77,-37.69,0,*6D
1522090973.16,25441,12.5,72530.0,-11.25,-37.87,-39.85,0,*6D
1522090974.46,25442,12.5,72528.3,-11.25,-39.23,-40.59,0,*61
1522090975.72,25443,12.5,72534.3,-11.27,-38.11,-40.29,0,*65
1522090976.99,25444,12.5,72530.8,-11.27,-39.41,-40.29,0,*66
1522090978.21,25445,12.5,72528.8,-11.27,-39.85,-40.47,0,*67
1522090979.46,25446,12.5,72528.5,-11.31,-39.97,-40.53,0,*65
1522090980.74,25447,12.5,72530.8,-11.27,-39.71,-40.59,0,*61
1522090981.98,25448,12.5,72530.3,-11.31,-38.91,-40.15,0,*6E
1522090983.22,25449,12.5,72530.5,-11.27,-40.03,-40.29,0,*63
1522090984.44,25450,12.5,72532.8,-11.31,-40.15,-40.35,0,*66
1522090985.7,25451,12.5,72530.5,-11.31,-40.15,-40.29,0,*6A
1522090986.94,25452,12.5,72530.8,-11.31,-39.97,-40.15,0,*62
1522090988.18,25453,12.5,72528.8,-11.27,-39.85,-39.97,0,*63
1522090989.45,25454,12.5,72526.8,-11.31,-40.09,-40.29,0,*62
1522090990.7,25455,12.5,72534.0,-11.31,-40.15,-40.29,0,*6E
1522090991.96,25456,12.5,72528.5,-11.27,-39.91,-40.09,0,*6A
1522090993.21,25457,12.5,72530.5,-11.27,-39.91,-40.09,0,*6B
1522090994.48,25458,12.5,72528.5,-11.31,-39.97,-40.09,0,*65
1522090995.73,25459,12.5,72530.3,-11.27,-39.91,-40.09,0,*65
1522090997.0,25460,12.5,72528.8,-11.27,-40.09,-40.21,0,*6A
1522090998.24,25461,12.5,72526.0,-11.27,-40.03,-40.21,0,*61
1522090999.52,25462,12.5,72530.5,-11.27,-40.09,-40.21,0,*68
1522091000.77,25463,12.5,72530.3,-11.27,-39.91,-40.21,0,*66
1522091002.01,25464,12.5,72534.3,-11.27,-40.03,-40.21,0,*64
1522091003.26,25465,12.5,72534.0,-11.31,-40.15,-40.29,0,*6D
1522091004.51,25466,12.5,72530.8,-11.27,-39.91,-40.21,0,*63
1522091005.73,25467,12.5,72530.0,-11.27,-39.85,-40.03,0,*67
1522091006.98,25468,12.5,72528.3,-11.31,-40.15,-40.29,0,*60
1522091008.23,25469,12.5,72528.3,-11.27,-39.91,-40.09,0,*66
1522091009.48,25470,12.5,72530.8,-11.27,-40.03,-40.21,0,*61
1522091010.74,25471,12.5,72528.3,-11.25,-40.03,-40.21,0,*62
1522091011.99,25472,12.5,72528.8,-11.27,-39.91,-40.29,0,*6E
1522091013.23,25473,12.5,72528.8,-11.27,-40.03,-40.21,0,*62
1522091014.5,25474,12.5,72528.3,-11.27,-40.21,-40.29,0,*6D
1522091015.78,25475,12.5,72530.5,-11.25,-40.21,-40.29,0,*6E
1522091017.05,25476,12.5,72530.3,-11.25,-39.91,-40.29,0,*68
1522091018.32,25477,12.5,72530.3,-11.25,-39.85,-40.09,0,*6E
1522091019.59,25478,12.5,72528.3,-11.25,-39.71,-39.91,0,*65
1522091020.86,25479,12.5,72534.0,-11.25,-39.71,-39.91,0,*64
1522091022.11,25480,12.5,72524.8,-11.27,-39.91,-40.09,0,*61
1522091023.34,25481,12.5,72528.0,-11.27,-39.91,-40.03,0,*6A
1522091024.55,25482,12.5,72532.8,-11.27,-39.85,-40.03,0,*6C
1522091025.8,25483,12.5,72528.8,-11.27,-40.03,-40.09,0,*67
1522091027.07,25484,12.5,72528.0,-11.27,-39.97,-40.09,0,*63
1522091028.32,25485,12.5,72530.8,-11.27,-39.65,-39.71,0,*6E
1522091029.57,25486,12.5,72530.8,-11.25,-39.65,-39.65,0,*6A
1522091030.84,25487,12.5,72528.8,-11.23,-39.79,-39.79,0,*6D
1522091032.09,25488,12.5,72528.3,-11.25,-39.65,-39.65,0,*64
1522091033.37,25489,12.5,72532.5,-11.23,-39.79,-39.79,0,*63
1522091034.58,25490,12.5,72532.8,-11.23,-39.85,-39.85,0,*6B
1522091035.86,25491,12.5,72530.5,-11.23,-39.79,-39.97,0,*6A
1522091037.1,25492,12.5,72528.0,-11.23,-39.97,-40.15,0,*6D
1522091038.35,25493,12.5,72530.0,-11.23,-39.79,-40.03,0,*6B
1522091039.62,25494,12.5,72534.0,-11.25,-39.71,-39.91,0,*67
1522091040.86,25495,12.5,72530.0,-11.23,-39.97,-40.15,0,*6A
1522091042.1,25496,12.5,72530.0,-11.23,-40.03,-40.21,0,*6D
1522091043.35,25497,12.5,72528.8,-11.23,-40.15,-40.21,0,*6B
1522091044.6,25498,12.5,72528.0,-11.23,-40.15,-40.21,0,*64
1522091045.85,25499,12.5,72528.0,-11.23,-40.15,-40.21,0,*65
1522091047.12,25500,12.5,72530.0,-11.23,-40.09,-40.21,0,*69
1522091048.34,25501,12.5,72530.0,-11.23,-40.35,-40.35,0,*62
1522091049.6,25502,12.5,72528.8,-11.25,-40.41,-40.47,0,*61
1522091050.9,25503,12.5,72528.8,-11.25,-40.41,-40.41,0,*66
1522091052.19,25504,12.5,72532.5,-11.25,-40.29,-40.41,0,*6F
1522091053.45,25505,12.5,72530.8,-11.25,-40.29,-40.47,0,*68
1522091054.73,25506,12.5,72530.8,-11.25,-40.29,-40.29,0,*63
1522091056.02,25507,12.5,72530.8,-11.25,-40.29,-40.29,0,*62
1522091057.31,25508,12.5,72528.0,-11.25,-39.97,-40.09,0,*64
1522091058.6,25509,12.5,72528.8,-11.25,-40.09,-40.21,0,*66
1522091059.86,25510,12.56,72534.3,-11.25,-40.03,-40.21,0,*64
1522091061.15,25511,12.5,72530.8,-11.25,-40.21,-40.29,0,*6D
1522091062.44,25512,12.5,72528.3,-11.25,-40.41,-40.41,0,*66
1522091063.68,25513,12.5,72528.5,-11.25,-40.47,-40.47,0,*67
1522091064.94,25514,12.5,72530.5,-11.25,-40.41,-40.47,0,*66
1522091066.24,25515,12.5,72530.3,-11.25,-40.41,-40.59,0,*68
1522091067.53,25516,12.5,72530.0,-11.25,-40.41,-40.21,0,*64
1522091068.83,25517,12.5,72530.0,-11.25,-38.49,-38.49,0,*63
1522091070.13,25518,12.5,72528.0,-11.25,-39.71,-39.71,0,*6C
1522091071.37,25519,12.5,72534.0,-11.25,-39.85,-39.91,0,*68
1522091072.65,25520,12.5,72530.8,-11.27,-40.09,-39.59,0,*6E
1522091073.92,25521,12.5,72530.3,-11.31,-39.71,-39.79,0,*6B
1522091075.15,25522,12.5,72530.3,-11.27,-39.65,-39.65,0,*67
1522091076.39,25523,12.5,72528.8,-11.31,-39.09,-39.53,0,*6E
1522091077.66,25524,12.5,72532.8,-11.31,-38.29,-39.71,0,*6A
1522091078.92,25525,12.5,72532.5,-11.33,-36.85,-39.15,0,*63
1522091080.19,25526,12.5,72530.8,-11.33,-35.13,-37.63,0,*63
1522091081.43,25527,12.5,72528.8,-11.33,-34.25,-37.75,0,*61
1522091082.67,25528,12.5,72532.3,-11.35,-33.55,-37.69,0,*65
1522091083.93,25529,12.5,72530.8,-11.33,-32.39,-36.13,0,*65
1522091085.2,25530,12.5,72532.5,-11.33,-32.75,-35.17,0,*62
1522091086.44,25531,12.5,72530.0,-11.35,-33.15,-35.53,0,*62
1522091087.66,25532,12.5,72530.5,-11.35,-33.55,-35.01,0,*62
1522091088.96,25533,12.5,72534.3,-11.33,-34.95,-35.53,0,*69
1522091090.19,25534,12.5,72532.8,-11.35,-35.41,-36.19,0,*6D
1522091091.46,25535,12.5,72532.3,-11.35,-37.99,-38.23,0,*6C
1522091092.75,25536,12.5,72530.0,-11.37,-38.67,-39.53,0,*65
1522091093.99,25537,12.5,72530.3,-11.35,-37.51,-37.87,0,*6B
1522091095.21,25538,12.5,72530.5,-11.35,-36.19,-37.27,0,*63
1522091096.45,25539,12.5,72528.0,-11.37,-35.01,-37.03,0,*6C
1522091097.73,25540,12.5,72532.3,-11.37,-34.41,-35.95,0,*6A
1522091098.99,25541,12.5,72530.5,-11.37,-34.59,-35.77,0,*6E
1522091100.26,25542,12.5,72530.5,-11.37,-33.73,-35.17,0,*64
1522091101.56,25543,12.5,72528.3,-11.37,-31.73,-33.73,0,*63
1522091102.86,25544,12.5,72530.5,-11.37,-30.73,-32.85,0,*6D
1522091104.07,25545,12.5,72530.5,-11.39,-31.67,-33.55,0,*6A
1522091105.3,25546,12.5,72530.8,-11.39,-32.01,-32.69,0,*64
1522091106.57,25547,12.5,72534.8,-11.37,-32.39,-32.97,0,*61
1522091107.79,25548,12.5,72534.8,-11.39,-33.03,-32.91,0,*6E
1522091109.03,25549,12.5,72530.0,-11.39,-31.67,-31.85,0,*69
1522091110.29,25550,12.5,72534.0,-11.37,-30.55,-31.79,0,*6C
1522091111.53,25551,12.5,72532.0,-11.37,-30.11,-32.23,0,*61
1522091112.78,25552,12.5,72530.0,-11.39,-29.39,-31.79,0,*62
1522091114.09,25553,12.5,72532.3,-11.37,-28.25,-30.17,0,*68
1522091115.33,25554,12.5,72532.3,-11.39,-28.31,-30.05,0,*67
1522091116.62,25555,12.5,72530.8,-11.37,-29.17,-30.55,0,*68
1522091117.89,25556,12.5,72534.3,-11.39,-30.55,-31.61,0,*6D
1522091119.18,25557,12.5,72532.0,-11.37,-30.89,-31.57,0,*66
1522091120.41,25558,12.5,72530.8,-11.39,-32.29,-32.57,0,*6C
1522091121.63,25559,12.5,72530.8,-11.39,-32.13,-32.91,0,*6E
1522091122.87,25560,12.5,72530.8,-11.39,-32.35,-33.09,0,*60
1522091124.08,25561,12.5,72532.3,-11.41,-32.35,-33.21,0,*64
1522091125.31,25562,12.5,72530.5,-11.41,-32.29,-33.37,0,*6D
1522091126.58,25563,12.5,72532.8,-11.41,-31.95,-32.85,0,*60
1522091127.82,25564,12.5,72528.8,-11.41,-32.57,-32.75,0,*65
1522091129.08,25565,12.5,72532.8,-11.43,-31.51,-31.45,0,*63
1522091130.35,25566,12.5,72532.8,-11.39,-30.39,-30.73,0,*66
1522091131.61,25567,12.5,72534.0,-11.43,-30.05,-31.67,0,*61
1522091132.85,25568,12.5,72528.0,-11.43,-29.95,-33.15,0,*68
1522091134.12,25569,12.5,72530.0,-11.41,-29.51,-32.75,0,*64
1522091135.36,25570,12.5,72532.0,-11.41,-29.01,-31.67,0,*69
1522091136.62,25571,12.5,72530.3,-11.43,-29.57,-31.57,0,*6A
1522091137.88,25572,12.5,72534.3,-11.43,-30.61,-32.01,0,*64
1522091139.11,25573,12.5,72532.3,-11.43,-31.33,-32.23,0,*63
1522091140.38,25574,12.5,72528.3,-11.43,-31.85,-32.51,0,*6C
1522091141.63,25575,12.5,72528.8,-11.41,-32.69,-33.27,0,*6E
1522091142.86,25576,12.5,72526.8,-11.43,-35.71,-36.07,0,*66
1522091144.1,25577,12.5,72528.5,-11.45,-36.43,-36.61,0,*63
1522091145.31,25578,12.5,72528.3,-11.45,-37.03,-37.03,0,*6C
1522091146.58,25579,12.5,72530.3,-11.43,-36.43,-37.39,0,*67
1522091147.87,25580,12.5,72530.0,-11.43,-36.79,-38.49,0,*60
1522091149.13,25581,12.5,72528.8,-11.43,-34.95,-37.15,0,*67
1522091150.35,25582,12.5,72530.3,-11.45,-33.67,-35.17,0,*68
1522091151.61,25583,12.5,72528.0,-11.47,-34.65,-37.45,0,*6B
1522091152.85,25584,12.5,72528.5,-11.45,-36.85,-37.69,0,*6C
1522091154.09,25585,12.5,72534.0,-11.45,-38.91,-39.65,0,*64
1522091155.38,25586,12.5,72530.0,-11.47,-37.69,-38.79,0,*61
1522091156.65,25587,12.5,72530.8,-11.47,-37.87,-38.79,0,*60
1522091157.89,25588,12.5,72530.0,-11.47,-38.43,-38.97,0,*68
1522091159.19,25589,12.5,72530.5,-11.47,-39.59,-39.79,0,*62
1522091160.45,25590,12.5,72530.5,-11.47,-40.03,-40.21,0,*68
1522091161.71,25591,12.5,72530.5,-11.47,-39.97,-40.03,0,*6A
1522091162.98,25592,12.5,72528.0,-11.47,-40.15,-40.21,0,*6D
1522091164.2,25593,12.5,72528.0,-11.49,-40.15,-40.35,0,*67
1522091165.48,25594,12.5,72528.8,-11.51,-40.15,-40.41,0,*6A
1522091166.74,25595,12.5,72530.0,-11.51,-40.03,-40.59,0,*65
1522091167.96,25596,12.5,72526.8,-11.49,-40.15,-40.35,0,*62
1522091169.25,25597,12.5,72532.5,-11.51,-40.21,-40.59,0,*67
1522091170.54,25598,12.5,72530.8,-11.51,-40.41,-40.59,0,*6E
1522091171.77,25599,12.5,72530.8,-11.51,-40.47,-40.65,0,*66
1522091173.03,25600,12.5,72526.3,-11.51,-40.59,-40.65,0,*6A
1522091174.32,25601,12.5,72524.0,-11.51,-40.59,-40.79,0,*66
1522091175.6,25602,12.5,72524.8,-11.51,-40.59,-40.79,0,*65
1522091176.89,25603,12.5,72530.5,-11.51,-40.09,-40.79,0,*61
1522091178.16,25604,12.5,72528.5,-11.51,-39.59,-40.65,0,*60
1522091179.4,25605,12.5,72528.8,-11.51,-39.47,-40.65,0,*6E
1522091180.66,25606,12.5,72528.0,-11.51,-40.09,-40.65,0,*69
1522091181.95,25607,12.5,72530.8,-11.55,-40.29,-40.79,0,*63
1522091183.23,25608,12.5,72530.8,-11.55,-40.79,-40.79,0,*69
1522091184.49,25609,12.5,72530.8,-11.55,-40.65,-40.85,0,*66
1522091185.75,25610,12.5,72528.8,-11.55,-40.47,-40.79,0,*6D
1522091187.02,25611,12.5,72526.8,-11.55,-40.59,-40.65,0,*6E
1522091188.27,25612,12.5,72530.0,-11.55,-40.65,-40.79,0,*6F
1522091189.48,25613,12.5,72528.3,-11.57,-40.53,-40.65,0,*64
1522091190.68,25614,12.5,72528.0,-11.57,-40.65,-40.65,0,*66
1522091191.95,25615,12.5,72528.3,-11.55,-40.47,-40.59,0,*6A
1522091193.19,25616,12.5,72528.5,-11.55,-40.47,-40.65,0,*66
1522091194.42,25617,12.5,72530.8,-11.57,-40.65,-40.85,0,*6B
1522091195.71,25618,12.5,72528.5,-11.55,-40.59,-40.59,0,*68
1522091196.98,25619,12.5,72526.8,-11.57,-40.85,-40.85,0,*6B
1522091198.28,25620,12.5,72526.5,-11.55,-40.41,-40.41,0,*63
1522091199.56,25621,12.5,72528.3,-11.55,-40.29,-40.29,0,*62
1522091200.81,25622,12.5,72528.8,-11.57,-40.15,-40.09,0,*6E
1522091202.08,25623,12.5,72530.5,-11.55,-40.09,-40.03,0,*6A
1522091203.32,25624,12.5,72528.0,-11.55,-39.65,-39.85,0,*69
1522091204.59,25625,12.5,72532.5,-11.55,-39.79,-39.85,0,*65
1522091205.83,25626,12.5,72528.0,-11.55,-40.03,-40.03,0,*65
1522091207.11,25627,12.5,72528.5,-11.55,-39.97,-39.97,0,*64
1522091208.37,25628,12.5,72530.5,-11.55,-39.97,-40.03,0,*68
1522091209.67,25629,12.5,72530.3,-11.55,-40.09,-40.21,0,*60
1522091210.95,25630,12.5,72528.0,-11.51,-40.29,-40.21,0,*6E
1522091212.23,25631,12.5,72528.8,-11.51,-40.29,-40.29,0,*67
1522091213.52,25632,12.5,72528.3,-11.51,-40.09,-40.09,0,*64
1522091214.79,25633,12.5,72524.5,-11.51,-40.03,-40.09,0,*6F
1522091216.0,25634,12.5,72526.3,-11.49,-40.03,-40.15,0,*6C
1522091217.29,25635,12.5,72528.3,-11.55,-40.21,-40.41,0,*61
1522091218.59,25636,12.5,72528.8,-11.55,-39.59,-40.29,0,*6D
1522091219.86,25637,12.5,72526.3,-11.55,-38.61,-40.41,0,*68
1522091221.15,25638,12.5,72528.8,-11.51,-36.91,-40.09,0,*6E
1522091222.41,25639,12.5,72528.5,-11.51,-37.75,-40.21,0,*6E
1522091223.67,25640,12.5,72528.5,-11.55,-38.67,-40.03,0,*68
1522091224.95,25641,12.5,72528.0,-11.55,-37.93,-39.29,0,*6B
1522091226.25,25642,12.5,72530.3,-11.55,-39.59,-40.79,0,*6B
1522091227.53,25643,12.5,72528.5,-11.55,-40.21,-40.79,0,*6B
1522091228.75,25644,12.5,72532.0,-11.57,-39.91,-40.65,0,*66
1522091229.96,25645,12.5,72528.5,-11.57,-40.47,-40.73,0,*65
1522091231.22,25646,12.5,72532.0,-11.55,-40.59,-40.65,0,*6C
1522091232.44,25647,12.5,72526.5,-11.57,-40.47,-40.53,0,*65
1522091233.68,25648,12.5,72528.0,-11.57,-40.09,-40.47,0,*65
1522091234.94,25649,12.5,72530.5,-11.55,-40.29,-40.47,0,*64
1522091236.15,25650,12.5,72528.8,-11.57,-40.35,-40.65,0,*63
1522091237.38,25651,12.5,72526.0,-11.57,-40.53,-40.85,0,*6C
1522091238.62,25652,12.5,72530.3,-11.59,-40.35,-40.65,0,*6F
1522091239.89,25653,12.5,72526.0,-11.59,-40.15,-40.29,0,*64
1522091241.15,25654,12.5,72528.3,-11.57,-40.29,-40.29,0,*62
1522091242.4,25655,12.5,72530.5,-11.57,-40.15,-40.29,0,*6C
1522091243.65,25656,12.5,72528.3,-11.57,-40.15,-40.29,0,*6F
1522091244.85,25657,12.5,72532.3,-11.57,-40.03,-40.03,0,*61
1522091246.07,25658,12.5,72530.3,-11.57,-39.91,-40.03,0,*6B
1522091247.31,25659,12.5,72526.3,-11.57,-39.91,-40.09,0,*60
1522091248.58,25660,12.5,72528.3,-11.57,-40.09,-40.29,0,*67
1522091249.85,25661,12.5,72526.8,-11.57,-40.09,-40.09,0,*64
1522091251.09,25662,12.5,72528.3,-11.57,-40.03,-40.09,0,*6D
1522091252.32,25663,12.5,72526.0,-11.57,-40.29,-40.47,0,*6E
1522091253.56,25664,12.5,72526.0,-11.55,-40.03,-40.35,0,*66
1522091254.8,25665,12.5,72526.5,-11.57,-40.03,-40.09,0,*6A
1522091256.02,25666,12.5,72526.5,-11.57,-39.47,-39.65,0,*63
1522091257.26,25667,12.5,72530.0,-11.57,-40.09,-39.91,0,*6D
1522091258.48,25668,12.5,72524.8,-11.57,-40.15,-39.91,0,*6F
1522091259.7,25669,12.5,72528.0,-11.57,-40.15,-40.15,0,*6C
1522091260.97,25670,12.5,72526.8,-11.57,-40.09,-40.09,0,*64
1522091262.22,25671,12.5,72528.0,-11.57,-40.09,-40.15,0,*68
1522091263.43,25672,12.5,72530.5,-11.57,-39.47,-40.15,0,*6F
1522091264.64,25673,12.5,72530.3,-11.57,-39.35,-39.85,0,*6C
1522091265.91,25674,12.5,72524.8,-11.57,-39.71,-40.29,0,*63
1522091267.16,25675,12.5,72526.3,-11.57,-39.85,-40.09,0,*6B
1522091268.42,25676,12.5,72524.3,-11.57,-40.09,-40.29,0,*60
1522091269.67,25677,12.5,72526.5,-11.57,-40.15,-40.29,0,*6C
1522091270.91,25678,12.5,72526.8,-11.57,-40.09,-40.15,0,*61
1522091272.13,25679,12.5,72528.3,-11.57,-39.85,-40.03,0,*6D
1522091273.39,25680,12.5,72528.0,-11.59,-39.47,-39.15,0,*62
1522091274.61,25681,12.5,72528.8,-11.61,-39.91,-40.15,0,*6D
1522091275.91,25682,12.5,72530.5,-11.59,-39.71,-40.29,0,*64
1522091277.14,25683,12.5,72524.5,-11.61,-40.21,-40.35,0,*68
1522091278.38,25684,12.5,72524.5,-11.59,-40.03,-40.15,0,*66
1522091279.62,25685,12.5,72530.3,-11.59,-39.35,-40.03,0,*6B
1522091280.89,25686,12.5,72530.8,-11.61,-39.79,-40.09,0,*61
1522091282.16,25687,12.5,72528.0,-11.59,-39.71,-40.15,0,*6E
1522091283.41,25688,12.5,72530.0,-11.59,-39.91,-40.15,0,*6F
1522091284.68,25689,12.5,72530.0,-11.59,-39.71,-39.85,0,*67
1522091285.97,25690,12.5,72530.8,-11.59,-39.71,-40.29,0,*67
1522091287.21,25691,12.5,72530.8,-11.59,-39.47,-40.15,0,*6C
1522091288.49,25692,12.5,72528.5,-11.59,-39.85,-40.09,0,*6C
1522091289.76,25693,12.5,72528.8,-11.59,-39.91,-40.09,0,*68
1522091291.06,25694,12.5,72528.0,-11.59,-40.09,-40.09,0,*60
1522091292.35,25695,12.5,72528.5,-11.59,-40.09,-40.29,0,*63
1522091293.6,25696,12.5,72530.0,-11.61,-40.15,-40.21,0,*6E
1522091294.86,25697,12.5,72528.8,-11.59,-40.09,-40.35,0,*6C
1522091296.13,25698,12.5,72530.0,-11.59,-40.03,-40.29,0,*64
1522091297.4,25699,12.5,72530.3,-11.59,-39.85,-40.29,0,*65
1522091298.69,25700,12.5,72528.8,-11.59,-40.09,-40.29,0,*6E
1522091299.98,25701,12.5,72528.0,-11.59,-40.09,-40.29,0,*6F
1522091301.27,25702,12.5,72526.5,-11.59,-40.29,-40.29,0,*6E